Weather History for KOCF - August, 2013

Change the Weather History Date:

Wednesday, August 21, 2013

  Actual Average Record
Temperature  
Mean Temperature 80 °F -  
Max Temperature 89 °F 88 °F 96 °F (2007)
Min Temperature 71 °F 69 °F 69 °F (2001)
Cooling Degree Days 15    
Growing Degree Days 30 (Base 50)    
Moisture  
Dew Point 69 °F    
Average Humidity 81    
Maximum Humidity 89    
Minimum Humidity 55    
Precipitation  
Precipitation 0.01 in - - ()
Sea Level Pressure  
Sea Level Pressure 30.10 in    
Wind  
Wind Speed 4 mph (NE)    
Max Wind Speed 16 mph    
Max Gust Speed 29 mph    
Visibility 9 miles    
Events Rain , Thunderstorm    
Averages and records for this station are not official NWS values.
T = Trace of Precipitation, MM = Missing Value Source: NWS Daily Summary

Daily Weather History Graph

Daily Weather History Graph

Search for Another Location

Airport or City:

Trip Planner

Search our weather history database for the weather conditions in past years. The results will help you decide how hot, cold, wet, or windy it might be!

Date:

Astronomy

Aug. 21, 2013 Rise Set
Actual Time 7:00 AM EDT 8:02 PM EDT
Civil Twilight 6:36 AM EDT 8:27 PM EDT
Nautical Twilight 6:07 AM EDT 8:56 PM EDT
Astronomical Twilight 5:37 AM EDT 9:26 PM EDT
Moon 8:20 PM EDT (8/21) 7:32 AM EDT (8/21)
Length of Visible Light 13h 50m
Length of Day
13h 01m
Full, 100% of the Moon is Illuminated
Aug 21
Full
Aug 28
Last Quarter
Sep 5
New
Sep 12
First Quarter
Sep 19
Full

Hourly Weather History & Observations

Time (EDT) Temp. Heat Index Dew Point Humidity Pressure Visibility Wind Dir Wind Speed Gust Speed Precip Events Conditions
12:35 AM 73.4 °F - 66.2 °F 78% 30.12 in 10.0 mi ENE 4.6 mph - N/A   Partly Cloudy
12:55 AM 73.4 °F - 66.2 °F 78% 30.11 in 10.0 mi ENE 5.8 mph - N/A   Clear
1:15 AM 73.4 °F - 66.2 °F 78% 30.11 in 10.0 mi ENE 4.6 mph - N/A   Clear
1:35 AM 73.4 °F - 66.2 °F 78% 30.11 in 10.0 mi ENE 4.6 mph - N/A   Clear
1:55 AM 73.4 °F - 66.2 °F 78% 30.11 in 10.0 mi ENE 3.5 mph - N/A   Clear
2:15 AM 73.4 °F - 66.2 °F 78% 30.11 in 10.0 mi Calm Calm - N/A   Clear
2:35 AM 71.6 °F - 66.2 °F 83% 30.10 in 10.0 mi Calm Calm - N/A   Clear
2:55 AM 71.6 °F - 66.2 °F 83% 30.10 in 10.0 mi Calm Calm - N/A   Clear
3:15 AM 71.6 °F - 66.2 °F 83% 30.10 in 10.0 mi Calm Calm - N/A   Clear
3:35 AM 71.6 °F - 66.2 °F 83% 30.10 in 10.0 mi NNE 3.5 mph - N/A   Clear
3:55 AM 71.6 °F - 66.2 °F 83% 30.09 in 10.0 mi NE 3.5 mph - N/A   Clear
4:15 AM 71.6 °F - 66.2 °F 83% 30.09 in 10.0 mi NNE 3.5 mph - N/A   Clear
4:35 AM 71.6 °F - 66.2 °F 83% 30.08 in 10.0 mi NNE 4.6 mph - N/A   Clear
4:55 AM 71.6 °F - 66.2 °F 83% 30.08 in 10.0 mi NNE 3.5 mph - N/A   Clear
5:15 AM 71.6 °F - 66.2 °F 83% 30.08 in 10.0 mi NNE 3.5 mph - N/A   Clear
5:35 AM 71.6 °F - 66.2 °F 83% 30.09 in 10.0 mi North 4.6 mph - N/A   Clear
5:55 AM 71.6 °F - 66.2 °F 83% 30.09 in 10.0 mi North 3.5 mph - N/A   Clear
6:15 AM 71.6 °F - 66.2 °F 83% 30.10 in 10.0 mi North 4.6 mph - N/A   Clear
6:35 AM 71.6 °F - 66.2 °F 83% 30.10 in 10.0 mi Calm Calm - N/A   Clear
6:50 AM 71.6 °F - 66.2 °F 83% 30.11 in 6.0 mi Calm Calm - N/A   Partly Cloudy
7:50 AM 73.4 °F - 68.0 °F 83% 30.12 in 6.0 mi North 5.8 mph - N/A   Partly Cloudy
8:50 AM 78.8 °F - 71.6 °F 78% 30.14 in 8.0 mi NE 4.6 mph - N/A   Scattered Clouds
9:50 AM 82.4 °F 88.2 °F 73.4 °F 74% 30.14 in 10.0 mi East 5.8 mph - N/A   Partly Cloudy
10:50 AM 87.8 °F 95.6 °F 73.4 °F 62% 30.15 in 10.0 mi East 4.6 mph - N/A   Mostly Cloudy
11:50 AM 87.8 °F 95.6 °F 73.4 °F 62% 30.14 in 10.0 mi East 6.9 mph - N/A   Mostly Cloudy
12:50 PM 87.8 °F 95.6 °F 73.4 °F 62% 30.12 in 10.0 mi ENE 11.5 mph - N/A   Mostly Cloudy
1:50 PM 89.6 °F 96.2 °F 71.6 °F 55% 30.10 in 10.0 mi ENE 10.4 mph - N/A   Scattered Clouds
2:40 PM 87.8 °F 93.8 °F 71.6 °F 58% 30.11 in 1.0 mi East 16.1 mph 28.8 mph N/A Rain , Thunderstorm Heavy Thunderstorms and Rain
2:50 PM 78.8 °F - 69.8 °F 74% 30.13 in 2.5 mi ENE 4.6 mph 23.0 mph N/A Rain , Thunderstorm Thunderstorms and Rain
3:34 PM 75.2 °F - 69.8 °F 83% 30.10 in 3.0 mi Calm Calm - N/A Rain Light Rain
3:55 PM 77.0 °F - 71.6 °F 83% 30.08 in 10.0 mi Calm Calm - N/A   Scattered Clouds
4:50 PM 78.8 °F - 71.6 °F 78% 30.09 in 10.0 mi ENE 5.8 mph - N/A   Partly Cloudy
5:50 PM 77.0 °F - 71.6 °F 83% 30.10 in 10.0 mi Calm Calm - N/A   Partly Cloudy
6:50 PM 77.0 °F - 71.6 °F 83% 30.10 in 10.0 mi Calm Calm - N/A   Partly Cloudy
7:55 PM 75.2 °F - 71.6 °F 89% 30.10 in 10.0 mi North 3.5 mph - 0.01 in   Clear
8:15 PM 75.2 °F - 71.6 °F 89% 30.09 in 10.0 mi North 5.8 mph - N/A   Clear
8:35 PM 75.2 °F - 71.6 °F 89% 30.08 in 10.0 mi North 4.6 mph - N/A   Clear
8:55 PM 75.2 °F - 71.6 °F 89% 30.08 in 10.0 mi North 5.8 mph - N/A   Clear
9:15 PM 75.2 °F - 71.6 °F 89% 30.10 in 10.0 mi Calm Calm - N/A   Clear
9:35 PM 75.2 °F - 71.6 °F 89% 30.10 in 10.0 mi Calm Calm - N/A   Scattered Clouds
9:55 PM 75.2 °F - 71.6 °F 89% 30.10 in 10.0 mi Calm Calm - N/A   Clear
10:15 PM 75.2 °F - 71.6 °F 89% 30.10 in 10.0 mi Calm Calm - N/A   Clear
10:35 PM 75.2 °F - 71.6 °F 89% 30.10 in 10.0 mi NE 3.5 mph - N/A   Clear
10:55 PM 77.0 °F - 71.6 °F 83% 30.11 in 10.0 mi ENE 3.5 mph - N/A   Clear
11:15 PM 77.0 °F - 71.6 °F 83% 30.11 in 10.0 mi Calm Calm - N/A   Clear
11:35 PM 77.0 °F - 71.6 °F 83% 30.11 in 10.0 mi Calm Calm - N/A   Clear
11:55 PM 75.2 °F - 71.6 °F 89% 30.12 in 10.0 mi Calm Calm - N/A   Clear